This is the latest recevied weather packets stored in our database for station/object K7SKM. If no packets are shown the sender has not sent any weather packets the latest 10 day(s).
| Time | Temp. | Humidity | Pressure | Rain* | Wind** | Luminosity | Snow |
|---|---|---|---|---|---|---|---|
| 1788571148 | 17.22° C | 64% | 1019.6 hPa | 0 mm | - | 46 W/m² | - |
| 1788570843 | 17.22° C | 64% | 1019.5 hPa | 0 mm | - | 50 W/m² | - |
| 1788570538 | 17.22° C | 64% | 1019.3 hPa | 0 mm | - | 61 W/m² | - |
| 1788570233 | 17.22° C | 63% | 1019.1 hPa | 0 mm | - | 71 W/m² | - |
| 1788569929 | 17.78° C | 62% | 1019.2 hPa | 0 mm | - | 69 W/m² | - |
| 1788569625 | 17.78° C | 63% | 1019 hPa | 0 mm | - | 73 W/m² | - |
| 1788569320 | 18.33° C | 62% | 1018.8 hPa | 0 mm | - | 108 W/m² | - |
| 1788569014 | 18.89° C | 61% | 1019 hPa | 0 mm | - | 92 W/m² | - |
| 1788568710 | 18.33° C | 61% | 1019.1 hPa | 0 mm | - | 149 W/m² | - |
| 1788568406 | 18.33° C | 62% | 1018.9 hPa | 0 mm | - | 158 W/m² | - |
| 1788568101 | 17.78° C | 63% | 1019 hPa | 0 mm | - | 160 W/m² | - |
| 1788567795 | 17.78° C | 61% | 1018.9 hPa | 0 mm | - | 98 W/m² | - |
| 1788567490 | 17.78° C | 61% | 1018.8 hPa | 0 mm | - | 95 W/m² | - |
| 1788567189 | 17.78° C | 60% | 1018.9 hPa | 0 mm | - | 113 W/m² | - |
| 1788566885 | 17.78° C | 59% | 1018.9 hPa | 0 mm | - | 121 W/m² | - |
| 1788566580 | 18.33° C | 61% | 1018.9 hPa | 0 mm | - | 132 W/m² | - |
| 1788566276 | 18.89° C | 60% | 1019 hPa | 0 mm | - | 263 W/m² | - |
| 1788565970 | 18.33° C | 60% | 1018.8 hPa | 0 mm | - | 262 W/m² | - |
| 1788565675 | 18.89° C | 61% | 1019 hPa | 0 mm | - | 348 W/m² | - |
| 1788565360 | 18.89° C | 63% | 1018.9 hPa | 0 mm | - | 303 W/m² | - |
| 1788565056 | 18.89° C | 63% | 1019 hPa | 0 mm | - | 148 W/m² | - |
| 1788564752 | 19.44° C | 63% | 1018.8 hPa | 0 mm | - | 127 W/m² | - |
| 1788564448 | 18.89° C | 61% | 1018.8 hPa | 0 mm | - | 114 W/m² | - |
| 1788564144 | 20° C | 60% | 1018.8 hPa | 0 mm | - | 118 W/m² | - |
| 1788563839 | 19.44° C | 53% | 1018.8 hPa | 0 mm | - | 129 W/m² | - |
* Rain latest hour (hover to see other rain measurements)
** Current wind speed in m/s (hover to see current wind gust speed)